When you browse on this site, cookies collect data to enhance your experience and personalize the content and advertising you see.
Visit our Privacy Policy to learn more. By continuing to use the site, you agree to this use of cookies and data.
  • In Austria
  • List of Countries
  • For 7 days
  • Water Temperature
  • Satellite Maps
  • Weather Map
  • News
  • Weather Widgets
  • user-avatar
    Login

    Hourly Weather Preston

    Today, 13 December, Thursday

    Time Temperature Precipitation Wind Pressure Humidity
    00:00 0°C° 0 mm 9 mps 760 mmHg 74%
    01:00 0°C° 0 mm 9 mps 759 mmHg 76%
    02:00 0°C° 0 mm 9 mps 759 mmHg 77%
    03:00 0°C° 0 mm 9 mps 759 mmHg 78%
    04:00 0°C° 0 mm 9 mps 759 mmHg 78%
    05:00 0°C° 0 mm 9 mps 759 mmHg 78%
    06:00 0°C° 0 mm 9 mps 759 mmHg 78%
    07:00 0°C° 0 mm 9 mps 759 mmHg 78%
    08:00 0°C° 0 mm 9 mps 759 mmHg 78%
    09:00 0°C° 0 mm 9 mps 759 mmHg 78%
    10:00 0°C° 0 mm 9 mps 760 mmHg 75%
    11:00 +1°C° 0 mm 9 mps 760 mmHg 73%
    12:00 +2°C° 0 mm 9 mps 760 mmHg 70%
    13:00 +2°C° 0 mm 9 mps 760 mmHg 71%
    14:00 +1°C° 0 mm 8 mps 760 mmHg 72%
    15:00 +1°C° 0 mm 8 mps 761 mmHg 73%
    16:00 +2°C° 0 mm 7 mps 761 mmHg 75%
    17:00 +2°C° 0 mm 7 mps 761 mmHg 77%
    18:00 0°C° 0 mm 7 mps 762 mmHg 78%
    19:00 0°C° 0 mm 7 mps 762 mmHg 79%
    20:00 +1°C° 0 mm 6 mps 763 mmHg 80%
    21:00 -1°C° 0 mm 6 mps 763 mmHg 81%
    22:00 -1°C° 0 mm 6 mps 763 mmHg 82%
    23:00 0°C° 0 mm 5 mps 764 mmHg 82%

    Tomorrow, 14 December, Friday

    Time Temperature Precipitation Wind Pressure Humidity
    00:00 0°C° 0 mm 5 mps 764 mmHg 83%
    01:00 0°C° 0 mm 5 mps 764 mmHg 84%
    02:00 0°C° 0 mm 5 mps 764 mmHg 84%
    03:00 0°C° 0 mm 5 mps 764 mmHg 85%
    04:00 -1°C° 0 mm 5 mps 764 mmHg 85%
    05:00 -1°C° 0 mm 5 mps 764 mmHg 86%
    06:00 -1°C° 0 mm 5 mps 764 mmHg 86%
    07:00 -1°C° 0 mm 5 mps 764 mmHg 86%
    08:00 -1°C° 0 mm 5 mps 765 mmHg 86%
    09:00 -1°C° 0 mm 5 mps 765 mmHg 87%
    10:00 -1°C° 0 mm 6 mps 764 mmHg 81%
    11:00 +1°C° 0 mm 6 mps 764 mmHg 75%
    12:00 +2°C° 0 mm 7 mps 764 mmHg 69%
    13:00 +2°C° 0 mm 7 mps 764 mmHg 70%
    14:00 +1°C° 0 mm 6 mps 764 mmHg 71%
    15:00 +1°C° 0 mm 6 mps 764 mmHg 72%
    16:00 +1°C° 0 mm 6 mps 764 mmHg 74%
    17:00 -1°C° 0 mm 7 mps 763 mmHg 76%
    18:00 -1°C° 0 mm 7 mps 763 mmHg 78%
    19:00 -1°C° 0 mm 7 mps 763 mmHg 78%
    20:00 -1°C° 0 mm 7 mps 763 mmHg 79%
    21:00 -1°C° 0 mm 8 mps 763 mmHg 79%
    22:00 -1°C° 0 mm 8 mps 762 mmHg 79%
    23:00 -1°C° 0 mm 8 mps 762 mmHg 78%

    Day after tomorrow, 15 December, Saturday

    Time Temperature Precipitation Wind Pressure Humidity
    00:00 -1°C° 0 mm 8 mps 761 mmHg 78%
    01:00 -1°C° 0 mm 9 mps 760 mmHg 76%
    02:00 -1°C° 0 mm 9 mps 760 mmHg 74%
    03:00 0°C° 0 mm 10 mps 759 mmHg 72%
    04:00 -2°C° 0.2 mm 10 mps 758 mmHg 72%
    05:00 -2°C° 0.2 mm 10 mps 757 mmHg 73%
    06:00 -2°C° 0.2 mm 10 mps 756 mmHg 74%
    07:00 -2°C° 1 mm 11 mps 756 mmHg 77%
    08:00 -2°C° 1 mm 11 mps 755 mmHg 79%
    09:00 -2°C° 1 mm 12 mps 754 mmHg 82%
    10:00 -2°C° 1.2 mm 11 mps 753 mmHg 82%
    11:00 -1°C° 1.2 mm 11 mps 752 mmHg 82%
    12:00 -1°C° 1.2 mm 11 mps 752 mmHg 82%
    13:00 -1°C° 0.3 mm 11 mps 750 mmHg 82%
    14:00 -1°C° 0.3 mm 12 mps 749 mmHg 83%
    15:00 0°C° 0.3 mm 12 mps 747 mmHg 84%
    16:00 0°C° 1.1 mm 12 mps 745 mmHg 85%
    17:00 +1°C° 1.1 mm 13 mps 743 mmHg 86%
    18:00 +1°C° 1.1 mm 13 mps 741 mmHg 88%
    19:00 +3°C° 1 mm 12 mps 740 mmHg 88%
    20:00 +4°C° 1 mm 12 mps 738 mmHg 88%
    21:00 +6°C° 1 mm 11 mps 737 mmHg 88%
    22:00 +5°C° 0.5 mm 12 mps 738 mmHg 86%
    23:00 +5°C° 0.5 mm 13 mps 738 mmHg 84%

    16 December, Sunday

    Time Temperature Precipitation Wind Pressure Humidity
    00:00 +5°C° 0.5 mm 15 mps 739 mmHg 82%
    01:00 +4°C° 0.6 mm 13 mps 741 mmHg 79%
    02:00 +4°C° 0.6 mm 12 mps 743 mmHg 76%
    03:00 +4°C° 0.6 mm 11 mps 744 mmHg 73%
    04:00 +3°C° 0.1 mm 10 mps 745 mmHg 74%
    05:00 +3°C° 0.1 mm 9 mps 746 mmHg 75%
    06:00 +4°C° 0.1 mm 8 mps 748 mmHg 76%
    07:00 +3°C° 0.1 mm 7 mps 748 mmHg 78%
    08:00 +3°C° 0.1 mm 6 mps 749 mmHg 80%
    09:00 +3°C° 0.1 mm 5 mps 750 mmHg 83%
    10:00 +3°C° 0 mm 5 mps 750 mmHg 82%
    11:00 +5°C° 0 mm 5 mps 750 mmHg 81%
    12:00 +5°C° 0 mm 5 mps 750 mmHg 80%
    13:00 +5°C° 0.2 mm 5 mps 751 mmHg 82%
    14:00 +5°C° 0.2 mm 4 mps 751 mmHg 84%
    15:00 +5°C° 0.2 mm 4 mps 751 mmHg 86%
    16:00 +5°C° 0.4 mm 4 mps 751 mmHg 88%
    17:00 +4°C° 0.4 mm 3 mps 751 mmHg 90%
    18:00 +4°C° 0.4 mm 3 mps 752 mmHg 92%
    19:00 +4°C° 0.2 mm 3 mps 752 mmHg 93%
    20:00 +4°C° 0.2 mm 3 mps 752 mmHg 93%
    21:00 +5°C° 0.2 mm 2 mps 753 mmHg 94%
    22:00 +4°C° 0 mm 2 mps 753 mmHg 93%
    23:00 +4°C° 0 mm 2 mps 753 mmHg 92%

    17 December, Monday

    Time Temperature Precipitation Wind Pressure Humidity
    00:00 +4°C° 0 mm 2 mps 754 mmHg 91%
    01:00 +4°C° 0 mm 2 mps 754 mmHg 91%
    02:00 +4°C° 0 mm 2 mps 754 mmHg 90%
    03:00 +3°C° 0 mm 2 mps 754 mmHg 89%
    04:00 +2°C° 0 mm 3 mps 755 mmHg 89%
    05:00 +2°C° 0 mm 3 mps 755 mmHg 89%
    06:00 +2°C° 0 mm 3 mps 756 mmHg 89%
    07:00 +2°C° 0 mm 3 mps 756 mmHg 89%
    08:00 +2°C° 0 mm 3 mps 757 mmHg 89%
    09:00 +2°C° 0 mm 3 mps 757 mmHg 89%
    10:00 +3°C° 0 mm 3 mps 758 mmHg 88%
    11:00 +4°C° 0 mm 3 mps 758 mmHg 86%
    12:00 +4°C° 0 mm 3 mps 758 mmHg 84%
    13:00 +4°C° 0 mm 3 mps 758 mmHg 86%
    14:00 +4°C° 0 mm 4 mps 758 mmHg 87%
    15:00 +4°C° 0 mm 4 mps 758 mmHg 88%
    16:00 +4°C° 0 mm 4 mps 758 mmHg 89%
    17:00 +2°C° 0 mm 5 mps 757 mmHg 90%
    18:00 +2°C° 0 mm 5 mps 757 mmHg 91%
    19:00 +2°C° 0 mm 6 mps 757 mmHg 91%
    20:00 +3°C° 0 mm 6 mps 757 mmHg 90%
    21:00 +3°C° 0 mm 7 mps 757 mmHg 90%
    22:00 +3°C° 0 mm 7 mps 756 mmHg 90%
    23:00 +4°C° 0 mm 7 mps 756 mmHg 91%

    18 December, Tuesday

    Time Temperature Precipitation Wind Pressure Humidity
    00:00 +4°C° 0 mm 8 mps 755 mmHg 91%
    01:00 +5°C° 0 mm 8 mps 754 mmHg 90%
    02:00 +5°C° 0 mm 9 mps 753 mmHg 90%
    03:00 +6°C° 0 mm 9 mps 753 mmHg 89%
    04:00 +6°C° 0.1 mm 10 mps 752 mmHg 89%
    05:00 +7°C° 0.1 mm 10 mps 751 mmHg 88%
    06:00 +7°C° 0.1 mm 10 mps 750 mmHg 88%
    07:00 +7°C° 0.4 mm 10 mps 750 mmHg 87%
    08:00 +7°C° 0.4 mm 10 mps 750 mmHg 87%
    09:00 +7°C° 0.4 mm 10 mps 749 mmHg 86%
    10:00 +7°C° 0.7 mm 10 mps 749 mmHg 86%
    11:00 +7°C° 0.7 mm 11 mps 749 mmHg 85%
    12:00 +7°C° 0.7 mm 11 mps 748 mmHg 85%
    13:00 +7°C° 0.9 mm 10 mps 748 mmHg 85%
    14:00 +6°C° 0.9 mm 9 mps 748 mmHg 85%
    15:00 +6°C° 0.9 mm 9 mps 747 mmHg 85%
    16:00 +6°C° 0.7 mm 8 mps 747 mmHg 86%
    17:00 +6°C° 0.7 mm 8 mps 747 mmHg 86%
    18:00 +5°C° 0.7 mm 7 mps 747 mmHg 87%
    19:00 +5°C° 0.8 mm 7 mps 747 mmHg 87%
    20:00 +5°C° 0.8 mm 7 mps 747 mmHg 87%
    21:00 +5°C° 0.8 mm 6 mps 746 mmHg 87%
    22:00 +4°C° 0.9 mm 6 mps 746 mmHg 87%
    23:00 +5°C° 0.9 mm 5 mps 746 mmHg 88%
    Show more